Theta_e
321 325 326 327 331 336 339 338 337 338 334 333 335 336 341 347 356 365 351 349 354 355 353 348 348 347 343 338 335 335 336 337 337 337 337 337 336 339 341 341 343 343 341 338 331 326 319 322 325
320 323 326 327 332 339 340 337 337 337 334 333 333 334 337 348 352 352 347 349 354 355 352 350 348 347 345 343 337 335 336 337 336 337 337 337 337 338 340 344 344 343 339 330 322 318 319 322 326
320 324 326 329 332 337 340 340 338 335 333 334 334 336 348 350 351 351 347 350 354 352 354 351 347 347 346 345 341 339 337 338 337 337 337 337 337 336 337 340 342 340 333 324 318 319 320 324 327
323 325 325 327 333 334 336 338 336 334 334 334 335 345 347 349 351 348 346 349 352 351 351 351 346 347 346 346 345 345 341 341 337 337 338 338 337 336 336 338 338 335 327 321 318 319 321 327 334
323 324 328 330 332 333 334 335 334 334 334 334 334 344 346 347 348 347 348 348 349 351 354 353 345 345 346 346 346 346 346 344 339 337 338 339 337 336 335 337 336 333 325 321 318 317 320 325 329
323 325 328 332 334 334 334 333 332 333 334 333 333 337 336 343 347 347 347 348 348 351 356 351 345 345 345 345 345 345 346 346 344 338 338 340 339 337 336 335 334 329 323 320 318 316 316 316 318
322 325 328 330 332 333 334 332 331 331 332 333 331 334 334 334 342 347 348 348 349 351 358 354 346 344 344 344 344 345 346 347 346 341 338 342 341 337 336 335 333 328 324 321 318 317 316 316 317
321 323 326 328 331 332 333 333 331 330 330 330 330 331 332 330 332 342 346 347 348 349 357 356 351 350 344 344 345 346 347 348 347 345 339 343 344 339 337 335 332 328 326 322 319 318 319 319 319
320 323 326 326 327 328 329 332 331 330 330 329 329 330 329 328 327 330 340 345 345 348 350 354 351 350 350 351 346 346 348 349 348 347 342 344 346 341 339 334 335 328 324 322 319 318 319 319 319
320 322 323 325 326 326 326 326 328 329 330 329 328 328 327 326 326 328 331 340 345 346 347 352 350 349 348 347 349 344 349 350 349 349 347 346 348 346 345 342 333 338 327 321 319 318 318 318 318
319 320 320 321 321 322 322 323 324 324 326 327 326 326 327 326 326 326 328 328 330 343 345 349 351 349 349 347 347 346 348 350 352 352 352 349 349 345 345 342 339 333 331 321 320 318 318 319 326
319 320 319 319 321 322 322 322 322 322 323 323 323 324 323 324 325 325 326 328 328 329 339 347 351 350 350 349 350 349 347 348 349 349 351 352 347 344 344 341 340 338 334 325 331 330 327 329 331
318 319 320 321 320 321 321 320 321 321 322 322 322 321 321 322 323 323 324 325 327 329 330 346 351 352 352 351 349 350 348 346 346 346 346 347 347 346 344 340 342 342 337 334 328 334 333 332 335
319 319 320 320 320 320 320 319 319 319 320 320 321 321 321 322 322 323 324 325 326 328 330 333 351 352 353 352 351 353 350 346 346 344 344 345 346 343 344 342 338 342 337 336 335 334 335 338 338
319 319 319 319 319 319 319 318 318 320 320 320 320 321 321 322 322 324 322 323 326 327 327 330 329 354 354 355 352 352 355 350 347 344 344 344 341 346 345 342 343 338 337 335 337 336 337 337 339
318 318 318 319 319 318 318 318 319 321 320 320 319 320 321 322 322 322 322 323 323 324 326 328 334 343 354 355 358 355 356 354 349 346 344 343 342 345 347 344 342 340 341 338 339 338 338 338 337
319 318 319 319 320 320 319 318 319 320 320 320 321 321 322 322 324 321 322 322 322 323 325 326 327 328 333 358 357 358 356 354 353 350 346 344 344 341 348 345 343 341 341 341 338 339 338 339 338
320 320 319 319 321 320 319 319 319 320 320 321 322 321 322 322 323 323 321 320 321 322 324 327 328 328 328 333 352 354 357 355 355 354 349 348 348 345 344 347 343 342 341 340 339 338 339 337 336
319 319 319 320 320 320 319 320 320 320 320 321 321 323 324 324 323 321 320 321 323 323 323 324 325 328 329 331 344 355 356 357 356 355 354 351 349 349 346 345 344 343 341 340 339 339 338 338 337
319 318 319 320 320 320 320 320 320 321 322 322 322 323 324 325 325 326 324 323 323 323 324 324 325 326 326 332 332 339 350 353 355 355 356 353 352 350 351 347 346 341 344 342 341 340 339 340 337
319 320 320 319 320 321 321 321 322 322 322 322 323 324 323 324 324 326 326 323 322 322 323 323 323 321 326 329 330 330 332 344 352 352 353 354 353 353 352 352 347 346 344 344 342 342 342 341 343
320 320 319 319 320 320 320 322 324 323 324 324 325 324 323 324 324 323 323 322 322 321 321 321 323 326 327 328 327 331 332 336 343 350 352 353 354 353 353 353 353 347 348 347 347 346 347 345 345
318 319 319 319 320 321 321 322 322 324 324 325 326 326 326 325 324 322 321 321 321 320 321 323 324 322 322 328 327 332 327 328 333 334 336 348 355 354 353 353 353 352 348 350 349 349 349 349 344
318 318 319 320 320 323 322 323 323 324 326 326 325 326 324 322 321 320 320 320 320 320 320 320 322 324 326 323 324 330 332 333 336 334 338 337 349 354 351 352 354 353 351 350 347 346 350 348 345
319 320 321 323 323 324 323 324 327 330 327 325 325 325 323 321 320 320 320 320 320 319 319 320 320 321 324 323 326 327 329 333 334 338 339 337 345 347 351 352 353 354 352 352 347 346 349 350 348
319 320 324 327 329 327 326 327 327 327 326 325 323 323 322 320 320 320 319 320 318 318 319 320 321 322 323 324 326 328 327 331 332 333 337 341 341 341 349 351 351 353 353 353 349 347 348 350 349
321 322 322 326 327 330 328 325 326 326 326 325 324 322 319 319 321 319 318 319 318 318 319 320 319 321 323 322 327 329 330 333 332 333 335 337 344 344 342 348 349 349 350 352 351 346 343 333 343
321 321 323 325 336 332 327 326 327 327 326 323 322 321 319 320 318 318 319 319 318 319 318 318 322 322 321 324 323 325 326 330 331 334 333 337 338 343 346 345 342 341 338 337 333 338 329 328 329
325 322 322 324 327 333 332 327 326 325 323 323 323 322 320 319 317 318 318 317 318 318 317 317 320 319 322 321 322 323 326 326 328 329 334 337 338 342 344 344 339 335 331 326 324 326 324 325 325
323 325 324 332 332 330 333 332 326 327 323 324 320 319 318 319 319 318 318 318 318 318 318 317 319 320 320 321 322 324 324 327 327 325 327 331 327 336 343 340 334 327 329 327 326 326 325 325 324
Wind_Speed
17 20 19 16 7 8 16 20 18 7 1 6 8 6 14 20 14 5 13 15 27 25 26 27 26 25 23 22 22 21 20 19 19 17 16 16 16 15 15 15 13 11 9 7 6 6 7 9 9
16 18 21 10 11 12 14 21 23 4 13 6 2 5 8 16 17 14 12 22 25 23 25 24 26 26 24 22 21 20 19 20 19 18 16 15 14 14 14 13 12 10 8 7 7 7 8 8 9
18 18 10 8 12 16 16 16 9 12 6 2 2 4 10 11 16 10 15 21 23 22 21 22 25 25 24 22 20 19 19 19 20 18 16 15 14 13 13 12 10 9 7 7 7 7 8 8 8
12 11 9 12 18 21 21 7 7 6 2 1 6 14 8 12 7 14 13 18 18 19 19 19 24 23 23 21 21 19 18 19 20 19 17 15 14 13 12 11 9 8 7 7 7 7 7 7 6
17 8 11 16 19 21 16 4 8 6 2 5 3 17 15 14 14 12 12 15 16 19 20 17 23 22 22 21 21 20 20 20 20 20 17 16 15 14 13 12 9 8 7 7 7 7 6 6 5
8 10 13 14 19 20 16 6 6 9 3 6 7 18 13 10 12 11 10 11 12 21 20 17 23 21 20 20 20 20 21 21 21 21 18 16 14 13 13 12 11 10 9 8 7 7 6 5 5
13 11 17 20 19 17 4 5 7 8 11 6 6 6 12 11 8 5 6 8 12 19 22 16 24 22 19 18 18 18 21 24 23 22 20 17 14 14 13 12 11 10 10 9 8 8 7 6 6
10 10 20 20 17 18 11 4 8 10 9 10 5 4 10 8 3 9 9 11 12 15 19 17 19 19 20 18 16 16 18 23 24 23 22 19 15 14 14 13 13 12 10 10 9 8 8 8 8
17 13 16 22 21 18 15 10 10 7 11 5 3 7 6 6 5 6 8 13 13 17 19 18 18 18 16 15 17 17 17 20 23 23 22 21 17 15 14 14 12 12 12 11 10 10 10 10 10
15 11 23 18 13 13 21 16 11 8 15 11 12 11 11 8 8 8 7 9 14 16 17 22 21 23 19 19 19 20 18 21 23 23 23 23 18 17 16 14 16 14 13 13 12 12 12 12 12
18 17 16 17 17 16 17 10 12 13 16 9 9 12 12 8 3 7 11 12 13 13 20 24 25 26 24 22 26 22 23 22 22 22 22 22 19 20 19 19 18 18 17 16 15 14 15 13 11
20 21 19 19 19 7 8 9 15 17 14 12 13 13 9 9 8 9 14 16 17 16 13 23 28 28 26 23 25 24 26 26 25 27 26 23 24 23 22 22 22 21 21 21 17 14 13 10 11
21 18 19 17 18 11 10 13 15 17 15 13 13 11 11 11 10 15 18 18 18 15 12 21 30 30 28 27 22 24 27 28 28 28 31 29 25 25 27 27 23 23 20 20 20 20 18 16 15
15 19 16 17 13 14 14 16 16 16 16 16 13 12 14 13 14 15 15 12 9 12 10 5 18 28 28 29 27 17 25 28 29 30 33 35 31 33 31 28 31 25 23 24 20 22 21 17 16
13 14 12 16 17 14 15 18 19 16 17 13 14 13 12 12 12 10 10 5 5 9 11 14 12 19 27 27 31 27 16 25 25 29 30 36 37 33 32 35 29 31 29 28 29 22 22 17 14
14 15 16 17 18 19 15 16 16 15 21 16 5 10 12 10 11 11 11 3 2 5 9 12 11 7 26 27 25 29 23 21 25 25 27 33 36 34 31 27 29 28 22 26 19 21 19 19 20
13 14 19 19 20 18 19 18 16 12 4 8 12 13 10 11 9 15 8 6 4 8 4 5 13 17 12 20 24 22 23 26 26 28 29 32 38 40 31 33 30 32 30 24 27 19 25 23 21
16 19 16 17 13 13 13 15 17 11 14 14 14 13 12 13 9 12 16 16 13 4 3 2 4 13 19 15 15 22 22 26 27 26 36 29 34 39 42 32 33 32 32 29 27 28 25 27 25
20 20 15 10 14 16 17 14 16 15 14 14 13 13 13 12 12 15 12 10 5 11 10 8 9 10 14 17 15 20 25 25 27 30 30 28 35 35 39 37 37 31 36 40 44 41 37 34 31
18 18 14 16 16 13 13 15 15 17 18 16 14 13 12 10 10 9 5 12 11 12 14 14 13 15 16 14 19 19 20 26 29 30 31 37 32 38 39 42 35 41 33 37 38 39 32 33 37
14 14 15 17 16 16 14 17 17 20 20 19 18 13 10 9 6 5 7 9 8 8 9 14 16 18 17 15 17 22 25 25 24 26 33 35 38 36 43 41 43 36 39 37 42 41 34 27 26
17 16 17 17 14 13 15 15 19 14 17 19 16 12 10 11 8 4 2 2 6 8 11 15 12 14 16 18 20 21 24 21 21 29 28 33 40 43 40 39 39 44 40 41 38 38 35 26 24
14 14 15 15 14 15 17 12 15 18 19 18 15 17 13 12 5 3 2 5 9 12 16 14 9 12 18 19 21 22 23 25 26 28 31 37 37 44 42 44 44 43 43 40 41 36 37 35 30
15 16 14 14 13 15 18 18 16 17 18 11 8 16 8 6 4 2 3 5 8 13 13 16 19 13 10 17 21 23 25 25 26 31 30 32 30 41 47 45 46 45 44 43 40 39 36 40 39
7 8 9 13 14 15 20 18 12 11 11 7 5 7 8 5 2 3 5 6 9 15 16 12 16 22 15 19 20 22 28 28 30 31 31 33 31 34 41 48 47 44 47 44 46 41 39 41 35
16 14 11 18 14 16 21 15 14 14 11 5 3 6 3 1 1 6 7 7 14 16 15 16 16 20 16 16 23 21 26 30 30 31 32 33 37 40 33 48 50 48 46 43 42 41 41 36 39
13 14 12 9 12 13 14 22 20 18 11 2 1 3 4 5 6 8 9 11 11 15 14 15 21 24 18 14 21 21 24 29 32 34 34 34 38 39 46 32 52 54 46 41 45 40 26 4 34
14 10 7 7 5 12 12 14 10 9 13 6 4 2 6 9 9 9 9 12 11 13 12 19 16 16 18 15 18 21 28 29 32 34 36 37 40 37 38 40 35 29 17 29 24 27 16 11 5
13 12 11 10 12 9 12 10 12 12 6 8 11 12 12 11 11 12 13 12 11 13 13 16 17 17 16 19 19 22 22 27 30 33 30 37 36 36 37 34 35 16 27 31 35 34 16 16 28
17 17 10 5 6 10 10 15 16 12 13 14 10 12 14 14 14 14 12 13 10 12 11 14 13 13 16 14 19 18 17 22 25 30 27 23 34 43 36 25 21 15 25 30 34 28 26 30 36
Wind_Direction
300 304 301 268 250 228 255 248 253 229 359 44 38 332 335 46 37 69 128 117 120 141 156 159 160 160 161 163 165 164 163 165 163 160 156 152 150 147 143 141 140 138 139 141 141 138 132 129 124
299 300 287 264 247 243 237 244 250 43 72 76 62 240 258 63 85 110 115 121 127 146 154 161 165 165 166 168 170 170 170 171 170 167 163 161 159 157 155 154 152 149 153 153 147 145 142 140 137
287 279 277 244 239 245 252 344 9 75 61 274 155 333 23 7 45 93 119 124 127 147 152 169 167 171 172 172 176 177 178 177 176 174 170 168 169 168 169 169 168 164 165 161 155 153 153 151 151
279 271 237 263 250 242 260 258 53 89 136 280 286 90 80 40 57 93 126 135 135 147 157 172 169 173 177 179 181 184 186 185 185 182 178 177 177 178 179 180 179 177 174 171 168 166 164 164 161
260 267 255 248 244 261 252 318 103 266 120 147 195 111 104 95 93 103 128 140 150 147 159 176 177 176 180 184 188 191 192 193 192 191 188 185 185 187 186 186 187 189 186 183 182 181 179 179 181
257 237 254 250 247 248 264 164 144 265 310 76 293 105 95 105 115 135 136 150 155 141 156 172 184 184 186 190 195 198 199 198 199 198 196 195 193 195 196 196 194 194 196 196 198 195 194 200 208
243 249 247 250 264 271 266 283 286 236 269 257 97 114 122 90 112 98 143 152 149 141 145 163 180 187 191 197 201 205 204 201 201 202 203 203 203 203 204 204 203 203 204 207 205 203 204 211 222
222 245 259 261 258 260 257 291 262 272 269 86 69 271 97 103 96 154 191 155 162 151 149 148 172 183 188 197 205 210 208 204 203 204 206 208 210 211 210 210 208 210 214 215 216 218 224 227 231
241 242 240 241 260 280 290 223 224 267 269 351 312 272 53 65 341 263 201 170 173 158 157 158 169 184 186 191 203 207 211 208 209 209 210 209 208 216 218 218 218 222 218 220 227 226 231 239 244
227 229 242 252 261 258 275 285 282 216 254 242 252 266 268 256 241 266 246 226 181 171 175 167 170 180 188 196 202 208 204 209 211 211 213 210 204 210 207 218 212 220 228 227 229 234 240 245 252
215 237 254 243 266 257 276 302 272 282 257 248 273 274 258 256 255 282 271 270 294 208 179 173 173 179 182 201 198 202 198 207 209 207 212 216 205 206 208 207 213 219 225 225 228 236 241 249 259
217 226 236 261 267 284 274 280 278 280 270 270 275 285 310 303 277 263 258 247 238 256 231 174 174 179 186 196 191 193 195 200 202 206 206 207 206 208 204 203 211 219 217 219 214 226 238 240 243
231 238 242 230 251 262 275 275 261 259 260 260 257 280 271 260 273 274 274 268 280 295 298 183 175 181 189 197 204 195 193 204 201 206 206 205 210 208 205 203 203 209 207 220 208 221 231 227 235
233 236 241 262 240 257 234 246 261 260 269 255 249 253 259 249 248 247 243 256 308 303 315 325 177 184 188 200 214 207 205 204 208 205 203 204 206 209 210 206 205 206 202 207 213 211 219 218 228
254 239 240 240 250 238 252 252 239 244 244 230 229 235 246 262 274 281 292 273 1 355 341 322 280 190 192 201 213 229 228 211 209 208 205 206 209 210 213 207 212 203 205 199 203 200 212 210 225
246 245 255 250 226 237 232 251 257 268 213 228 251 265 255 259 259 266 246 224 6 334 316 325 312 291 201 202 208 223 238 238 224 220 214 214 214 209 220 209 209 215 218 211 213 200 192 212 222
232 241 238 248 244 204 213 248 253 236 157 223 213 233 239 239 235 252 272 288 223 242 212 287 306 316 327 217 209 217 223 234 232 229 224 220 216 212 211 216 212 212 210 209 206 206 214 213 214
231 220 235 255 230 188 231 227 249 232 199 220 226 236 242 251 243 223 202 222 240 230 138 125 298 305 306 301 241 234 228 225 235 234 233 223 216 212 213 211 214 212 210 207 207 210 222 220 216
265 282 296 282 229 196 208 225 244 250 248 246 221 223 226 227 224 220 236 231 34 28 358 351 335 301 288 294 279 224 226 228 228 233 233 233 222 208 210 214 216 217 213 210 207 202 205 213 214
245 266 277 284 293 293 273 263 265 263 262 260 260 252 247 247 230 205 137 54 30 4 346 339 322 301 277 268 277 277 252 233 230 230 231 231 229 211 206 210 216 217 215 216 212 211 209 209 209
255 268 268 264 275 270 254 259 258 254 251 251 254 250 251 260 264 96 55 28 351 325 326 317 308 303 299 286 279 279 282 269 247 237 233 231 227 222 210 209 209 214 216 221 220 216 217 206 206
262 241 250 259 266 266 264 269 258 265 246 226 225 221 235 236 213 119 54 331 320 327 318 303 298 321 315 306 279 260 264 275 269 239 243 227 225 222 220 213 213 212 215 218 222 220 217 207 203
263 270 273 268 267 271 263 265 266 260 252 248 229 195 197 216 176 136 218 349 314 322 292 300 284 304 309 311 300 286 269 274 281 273 268 238 227 219 222 217 215 214 216 221 225 221 211 206 201
253 270 266 262 266 257 255 254 260 260 261 267 342 170 147 102 49 355 352 306 303 295 319 314 318 286 288 308 302 301 284 269 267 273 279 260 247 220 221 221 217 217 218 222 224 222 212 211 210
226 255 259 252 243 249 245 245 255 327 330 349 228 144 109 89 347 320 269 291 312 303 293 305 304 306 304 303 286 291 292 285 262 258 264 266 259 242 216 217 220 221 223 223 221 222 214 212 203
260 247 248 275 282 290 309 287 283 309 321 208 209 284 63 73 261 287 290 320 292 288 305 309 306 293 297 308 296 284 290 284 278 262 252 256 256 257 251 217 220 221 223 224 223 220 214 214 207
265 263 297 326 304 280 267 283 286 284 341 330 206 245 287 242 254 264 293 279 291 306 300 312 302 285 272 282 306 300 303 288 272 270 264 257 254 252 254 256 225 219 224 229 225 221 213 7 250
272 276 270 261 282 275 267 278 276 357 315 16 303 240 257 255 265 272 266 268 284 287 289 284 287 326 311 314 312 321 312 305 305 273 259 259 262 261 255 256 253 251 218 249 291 212 177 246 312
261 242 251 255 249 257 278 270 304 359 299 311 294 300 305 306 292 275 263 271 275 281 287 298 307 306 314 318 328 304 306 309 309 303 293 262 261 262 256 259 251 239 217 216 285 282 142 189 166
242 271 257 254 255 266 270 270 282 301 336 344 305 297 284 269 273 284 289 286 276 275 277 285 284 290 295 310 308 308 326 318 326 324 313 332 300 275 255 238 212 173 178 190 204 230 247 191 171